Waarnemingen

Advertentie
Mijn weer
Lille, Frankrijk (7015): temperatuur & dauwpunt: 17.05.2019 11:00:00 - 23.05.2019 11:00:00 (CEST)Lille, Frankrijk (7015): temperatuur 5cm: 17.05.2019 11:00:00 - 23.05.2019 11:00:00 (CEST)Lille, Frankrijk (7015): temperatuur -20cm & temperatuur -100cm: 17.05.2019 11:00:00 - 23.05.2019 11:00:00 (CEST)Lille, Frankrijk (7015): windsnelheid & windstoten: 17.05.2019 11:00:00 - 23.05.2019 11:00:00 (CEST)Lille, Frankrijk (7015): windrichting: 17.05.2019 11:00:00 - 23.05.2019 11:00:00 (CEST)Lille, Frankrijk (7015): luchtdruk: 17.05.2019 11:00:00 - 23.05.2019 11:00:00 (CEST)Lille, Frankrijk (7015): zicht: 17.05.2019 11:00:00 - 23.05.2019 11:00:00 (CEST)Lille, Frankrijk (7015): neerslag: 17.05.2019 11:00:00 - 23.05.2019 11:00:00 (CEST)
Datum & Tijd tt [°C] td [°C] tt 5cm [°C] tt -20cm [°C] tt -100cm [°C] ff [km/u] ff [kn] fx [km/u] fx [kn] dd ppp [hPa] vv [km] rr [mm]
23.05.2019 11:00:00 18,7 5,2 21,7 13,6 12,5 9 5 22 12 ZZW 1018,9 27 0,0
23.05.2019 10:00:00 17,2 6,7 21,1 13,0 12,5 9 5 16 9 ZZW 1019,0 21 0,0
23.05.2019 09:00:00 15,0 8,5 17,5 12,7 12,5 4 2 9 5 ZW 1019,0 16 0,0
23.05.2019 08:00:00 11,8 8,3 11,5 12,7 12,6 3 2 5 3 ZZO 1019,2 9 0,0
23.05.2019 07:00:00 9,1 6,5 4,6 12,9 12,5 3 1 5 3 ZZO 1018,9 14 0,0
23.05.2019 06:00:00 8,2 6,5 3,9 13,2 12,5 0 0 8 5 N 1018,8 16 0,0
23.05.2019 05:00:00 8,6 6,2 5,0 13,5 12,5 3 1 5 3 O 1018,9 15 0,0
23.05.2019 04:00:00 9,5 5,9 4,5 13,9 12,5 4 2 5 3 O 1019,0 22 0,0
23.05.2019 03:00:00 10,3 6,3 5,4 14,3 12,5 3 1 6 3 WNW 1019,3 26 0,0
23.05.2019 02:00:00 10,2 6,3 6,1 14,7 12,5 3 2 5 3 WZW 1019,8 27 0,0
23.05.2019 01:00:00 11,6 6,7 7,5 15,2 12,5 0 0 4 2 N 1019,8 28 0,0
23.05.2019 00:00:00 13,1 6,4 10,8 15,6 12,5 0 0 6 3 N 1020,0 33 0,0
22.05.2019 23:00:00 14,5 6,1 8,7 16,1 12,5 6 3 10 5 O 1020,1 38 0,0
22.05.2019 22:00:00 15,8 5,7 9,9 16,6 12,5 7 4 9 5 ONO 1020,0 42 0,0
22.05.2019 21:00:00 18,2 5,7 19,0 16,9 12,5 7 4 15 8 NNO 1019,7 44 0,0
22.05.2019 20:00:00 19,2 5,6 20,2 17,1 12,5 6 4 17 9 NW 1019,8 39 0,0
22.05.2019 19:00:00 19,1 6,2 21,5 17,2 12,5 9 5 18 10 N 1019,7 39 0,0
22.05.2019 18:00:00 20,2 6,5 23,1 17,0 12,5 8 4 21 11 WZW 1019,6 37 0,0
22.05.2019 17:00:00 20,2 6,2 23,3 16,7 12,5 10 6 24 13 W 1019,9 35 0,0
22.05.2019 16:00:00 19,9 7,6 24,0 16,3 12,5 9 5 33 18 WNW 1020,0 21 0,0
22.05.2019 15:00:00 19,5 7,2 19,5 16,0 12,5 9 5 49 26 WNW 1020,3 27 0,0
22.05.2019 14:00:00 19,3 8,3 21,3 15,5 12,4 8 5 30 16 NNW 1020,4 26 0,0
22.05.2019 13:00:00 19,0 8,3 21,4 14,6 12,5 14 8 29 16 W 1020,5 23 0,0
22.05.2019 12:00:00 17,8 9,2 21,6 13,8 12,5 7 4 21 11 W 1020,6 14 0,0
22.05.2019 11:00:00 16,7 10,1 20,4 12,9 12,5 11 6 23 13 W 1020,5 14 0,0
22.05.2019 10:00:00 15,0 10,2 16,0 12,3 12,5 9 5 16 9 ZW 1020,4 7 0,0
22.05.2019 09:00:00 12,8 9,8 13,2 11,9 12,4 4 2 9 5 ZZW 1020,4 8 0,0
22.05.2019 08:00:00 10,3 8,9 8,9 11,9 12,4 3 2 8 4 O 1020,0 5 0,0
22.05.2019 07:00:00 8,1 7,5 3,3 12,1 12,5 4 2 5 3 O 1020,2 5 0,0
22.05.2019 06:00:00 7,5 6,8 2,7 12,4 12,5 0 0 9 5 N 1020,0 4,9 0,0
22.05.2019 05:00:00 7,9 7,1 2,9 12,7 12,5 2 1 5 3 ZW 1020,0 6 0,0
22.05.2019 04:00:00 8,0 7,1 3,3 13,0 12,5 4 2 4 2 ZZW 1020,1 8 0,0
22.05.2019 03:00:00 8,4 6,7 3,9 13,4 12,5 3 1 9 5 ZZW 1019,8 12 0,0
22.05.2019 02:00:00 9,9 7,8 5,6 13,7 12,5 9 5 11 6 WZW 1019,8 10 0,0
22.05.2019 01:00:00 10,5 7,6 6,1 14,1 12,4 3 2 10 5 ZZO 1019,7 10 0,0
22.05.2019 00:00:00 11,9 7,8 6,7 14,6 12,5 9 5 12 6 NW 1019,8 12 0,0
21.05.2019 23:00:00 12,5 6,3 6,7 15,1 12,4 5 3 12 7 N 1019,7 19 0,0
21.05.2019 22:00:00 13,9 5,8 11,5 15,7 12,5 7 4 24 13 N 1019,4 46 0,0
21.05.2019 21:00:00 15,9 6,0 15,4 16,2 12,5 17 9 31 17 NNW 1018,8 27 0,0
21.05.2019 20:00:00 17,8 6,6 20,1 16,4 12,5 16 9 33 18 NNW 1018,2 24 0,0
21.05.2019 19:00:00 17,7 6,5 20,8 16,5 12,5 23 12 47 25 NNW 1018,0 19 0,0
21.05.2019 18:00:00 18,1 7,5 22,8 16,4 12,4 21 12 37 20 NNW 1017,9 13 0,0
21.05.2019 17:00:00 18,1 8,4 21,3 16,2 12,4 22 12 39 21 NNW 1017,7 13 0,0
21.05.2019 16:00:00 18,7 8,6 21,0 15,8 12,4 22 12 37 20 NNW 1017,7 12 0,0
21.05.2019 15:00:00 18,6 9,1 20,9 15,2 12,4 25 13 40 21 NW 1017,4 11 0,0
21.05.2019 14:00:00 18,5 9,8 22,7 14,5 12,4 25 14 39 21 NNW 1017,3 12 0,0
21.05.2019 13:00:00 17,1 10,2 21,3 13,8 12,4 22 12 41 22 NW 1017,1 12 0,0
21.05.2019 12:00:00 16,6 11,1 19,8 13,2 12,4 22 12 36 19 NW 1016,9 11 0,0
21.05.2019 11:00:00 15,4 10,8 18,7 12,6 12,4 20 11 36 19 NNW 1016,8 9 0,0
21.05.2019 10:00:00 13,7 10,1 16,0 12,2 12,4 16 9 33 18 NW 1016,5 8 0,0
21.05.2019 09:00:00 11,6 9,8 11,9 12,0 12,4 16 8 29 15 NW 1016,2 6 0,0
21.05.2019 08:00:00 10,7 10,5 10,0 11,9 12,4 16 9 34 19 NNW 1015,8 3,1 0,0
21.05.2019 07:00:00 10,0 9,8 9,6 11,8 12,5 16 9 24 13 NW 1015,4 1,0 0,0
21.05.2019 06:00:00 9,8 9,7 6,5 11,8 12,4 8 5 21 11 NNW 1015,0 0,4 0,0
21.05.2019 05:00:00 7,9 7,5 6,2 12,0 12,4 8 4 14 8 WNW 1014,8 2,3 0,0
21.05.2019 04:00:00 8,2 7,8 6,8 12,3 12,4 11 6 16 9 W 1014,6 2,4 0,2
21.05.2019 03:00:00 8,5 8,1 6,2 12,5 12,4 10 5 16 9 WNW 1014,3 1,9 0,0
21.05.2019 02:00:00 8,2 7,1 6,6 12,8 12,4 11 6 14 8 WNW 1014,4 3,0 0,0
21.05.2019 01:00:00 9,6 8,0 8,6 13,0 12,4 12 6 21 11 WNW 1014,5 7 0,0
21.05.2019 00:00:00 10,0 8,8 8,8 13,4 12,5 12 6 19 10 WNW 1014,5 8 0,0
20.05.2019 23:00:00 10,7 8,5 9,6 13,7 12,4 10 5 23 12 NW 1014,1 10 0,0
20.05.2019 22:00:00 11,9 8,6 10,7 14,0 12,4 13 7 32 18 NNW 1013,6 15 0,0
20.05.2019 21:00:00 13,2 9,1 12,9 14,2 12,4 16 9 36 19 NW 1012,8 17 0,0
20.05.2019 20:00:00 14,3 9,1 15,3 14,3 12,4 22 12 40 21 NW 1012,4 16 0,0
20.05.2019 19:00:00 14,3 9,3 15,4 14,3 12,4 18 10 42 23 NNW 1012,4 20 0,0
20.05.2019 18:00:00 15,3 9,9 17,4 14,0 12,4 27 15 46 25 NW 1012,1 20 0,0
20.05.2019 17:00:00 14,8 9,4 17,4 13,5 12,4 24 13 43 23 NW 1012,1 21 0,0
20.05.2019 16:00:00 14,1 9,9 14,2 13,2 12,4 19 10 32 17 NW 1012,1 17 0,0
20.05.2019 15:00:00 12,5 9,9 13,3 13,0 12,4 18 10 31 17 NNW 1012,0 14 0,0
20.05.2019 14:00:00 12,1 9,8 12,9 12,9 12,4 19 10 29 16 NW 1011,6 11 0,0
20.05.2019 13:00:00 11,5 9,7 12,2 12,8 12,4 21 11 32 18 NW 1011,3 9 0,0
20.05.2019 12:00:00 11,3 9,6 12,0 12,7 12,4 22 12 32 17 NW 1010,7 8 0,0
20.05.2019 11:00:00 10,8 9,6 10,9 12,7 12,4 20 11 30 16 NW 1010,6 8 0,0
20.05.2019 10:00:00 10,5 9,9 10,9 12,7 12,4 16 9 30 16 NW 1010,6 3,3 0,0
20.05.2019 09:00:00 10,5 9,4 10,7 12,6 12,4 16 9 28 15 NW 1010,2 5 0,0
20.05.2019 08:00:00 10,3 9,2 10,3 12,6 12,4 18 10 29 16 NNW 1009,8 5 0,0
20.05.2019 07:00:00 10,2 8,6 10,2 12,8 12,4 19 10 32 17 NW 1009,6 8 0,0
20.05.2019 06:00:00 10,4 8,7 10,3 12,9 12,4 14 8 29 16 NNW 1009,3 6 0,0
20.05.2019 05:00:00 10,4 8,7 10,3 13,0 12,4 19 10 32 17 NNW 1008,9 7 0,0
20.05.2019 04:00:00 10,4 8,8 10,4 13,0 12,4 20 11 34 19 NNW 1008,8 8 0,0
20.05.2019 03:00:00 10,7 9,3 10,7 13,2 12,4 18 10 31 17 NNW 1008,8 5 0,0
20.05.2019 02:00:00 10,8 9,4 10,8 13,3 12,3 13 7 34 18 NNW 1009,0 7 0,0
20.05.2019 01:00:00 11,0 9,3 10,9 13,5 12,4 18 10 33 18 NNW 1009,1 7 0,0
20.05.2019 00:00:00 11,1 8,8 11,0 13,6 12,3 18 10 29 16 NNW 1009,1 11 0,0
19.05.2019 23:00:00 11,4 9,6 11,0 13,8 12,3 15 8 25 14 NW 1009,1 14 0,0
19.05.2019 22:00:00 11,7 9,6 11,3 14,1 12,3 16 9 28 15 NW 1008,9 15 0,0
19.05.2019 21:00:00 12,4 9,2 12,3 14,3 12,3 17 9 27 15 NNW 1008,6 20 0,0
19.05.2019 20:00:00 12,8 9,2 13,2 14,4 12,3 18 10 30 16 NNW 1008,2 16 0,0
19.05.2019 19:00:00 13,4 9,8 14,2 14,4 12,3 18 10 35 19 NW 1007,9 17 0,0
19.05.2019 18:00:00 14,0 10,6 14,4 14,3 12,3 22 12 37 20 NNW 1007,9 13 0,0
19.05.2019 17:00:00 13,1 10,5 12,7 14,3 12,3 21 12 32 17 NW 1008,0 9 0,0
19.05.2019 16:00:00 12,7 10,9 12,7 14,3 12,3 18 10 29 15 NNW 1008,0 4,0 1,4
19.05.2019 15:00:00 13,5 10,5 14,6 14,2 12,3 18 10 30 16 NNW 1008,3 9 0,0
19.05.2019 14:00:00 13,7 11,6 15,1 14,0 12,3 19 10 33 18 N 1008,2 7 0,0
19.05.2019 13:00:00 13,2 11,9 12,8 13,7 12,3 18 10 36 19 N 1008,0 5 0,4
19.05.2019 12:00:00 12,1 11,2 11,8 13,7 12,3 21 12 32 18 NNW 1007,9 3,5 1,2
19.05.2019 11:00:00 12,0 11,1 11,9 13,7 12,3 16 9 27 15 N 1008,3 2,5 1,2
19.05.2019 10:00:00 12,0 11,4 11,8 13,7 12,3 17 9 26 14 N 1007,9 2,0 3,1
19.05.2019 09:00:00 12,2 11,4 11,8 13,8 12,3 10 6 25 13 N 1007,5 1,0 3,2
19.05.2019 08:00:00 12,4 11,1 12,3 13,8 12,3 12 7 22 12 N 1007,0 2,3 0,2
19.05.2019 07:00:00 12,1 10,2 11,4 13,9 12,3 16 9 26 14 N 1006,8 3,1 0,0
19.05.2019 06:00:00 11,7 9,4 11,1 14,1 12,2 13 7 26 14 N 1006,7 3,5 0,0
19.05.2019 05:00:00 11,7 8,5 11,1 14,3 12,2 14 8 22 12 N 1006,7 4,1 0,0
19.05.2019 04:00:00 12,0 8,7 11,3 14,5 12,2 13 7 20 11 NNW 1006,9 4,4 0,0
19.05.2019 03:00:00 11,9 9,1 10,8 14,8 12,2 11 6 18 10 NNW 1007,1 3,9 0,0
19.05.2019 02:00:00 12,5 9,0 11,4 15,1 12,2 5 3 16 9 NW 1007,2 4,3 0,0
19.05.2019 01:00:00 13,4 9,1 12,7 15,4 12,2 12 7 21 11 NNO 1007,2 6 0,0
19.05.2019 00:00:00 14,3 9,5 13,9 15,7 12,2 13 7 22 12 NNO 1007,2 6 0,0
18.05.2019 23:00:00 15,0 9,6 14,6 16,1 12,2 16 8 29 15 NNO 1007,2 7 0,0
18.05.2019 22:00:00 15,7 9,8 15,3 16,5 12,2 18 10 26 14 NNO 1006,9 7 0,0
18.05.2019 21:00:00 16,3 9,9 15,4 16,9 12,2 18 10 30 16 NNW 1006,4 7 0,0
18.05.2019 20:00:00 16,8 10,6 15,4 17,3 12,2 16 9 25 13 WNW 1006,0 6 0,0
18.05.2019 19:00:00 18,7 9,2 19,3 17,5 12,2 6 3 19 10 OZO 1005,5 30 0,0
18.05.2019 18:00:00 20,8 9,7 21,4 17,3 12,2 6 4 18 10 O 1005,2 18 0,0
18.05.2019 17:00:00 19,0 8,6 20,8 17,2 12,2 6 4 17 9 O 1005,6 19 0,0
18.05.2019 16:00:00 19,2 9,4 20,6 16,8 12,2 11 6 21 11 NO 1005,6 17 0,0
18.05.2019 15:00:00 20,0 9,0 25,2 15,9 12,2 9 5 19 11 OZO 1005,8 16 0,0
18.05.2019 14:00:00 19,1 10,9 23,8 14,7 12,2 9 5 22 12 OZO 1005,8 7 0,0
18.05.2019 13:00:00 17,2 10,1 18,9 13,8 12,2 9 5 17 9 ONO 1006,1 8 0,0
18.05.2019 12:00:00 15,2 10,0 16,4 13,2 12,2 9 5 18 10 ONO 1006,2 7 0,0
18.05.2019 11:00:00 13,9 9,7 15,5 12,8 12,2 11 6 16 9 O 1006,1 6 0,0
18.05.2019 10:00:00 12,9 9,7 13,5 12,5 12,2 6 3 16 9 O 1006,0 6 0,0
18.05.2019 09:00:00 12,9 9,9 12,6 12,3 12,2 9 5 16 8 O 1005,7 5 0,0
18.05.2019 08:00:00 11,3 9,2 9,5 12,2 12,2 5 3 10 6 O 1005,6 3,7 0,0
18.05.2019 07:00:00 8,9 8,3 5,2 12,3 12,2 6 4 10 5 NNO 1005,5 3,6 0,0
18.05.2019 06:00:00 8,5 7,4 5,2 12,5 12,2 5 3 8 5 ONO 1005,4 3,5 0,0
18.05.2019 05:00:00 9,5 8,6 9,1 12,6 12,1 4 2 9 5 ONO 1005,5 3,3 0,0
18.05.2019 04:00:00 9,5 9,2 5,7 12,7 12,1 5 3 8 4 NNO 1005,6 2,7 0,0
18.05.2019 03:00:00 8,7 8,2 3,9 13,0 12,2 2 1 4 2 ONO 1005,8 1,4 0,0
18.05.2019 02:00:00 8,9 8,3 4,2 13,3 12,1 0 0 4 2 N 1006,1 0,7 0,0
18.05.2019 01:00:00 9,3 8,2 4,6 13,7 12,1 4 2 5 3 N 1006,1 3,1 0,0
18.05.2019 00:00:00 10,5 9,1 7,4 13,9 12,1 4 2 5 3 NO 1006,1 4,0 0,0
17.05.2019 23:00:00 11,2 9,8 10,8 14,1 12,1 5 3 9 5 O 1006,3 3,9 0,0
17.05.2019 22:00:00 11,7 9,6 11,4 14,3 12,1 6 3 11 6 ZO 1006,3 4,1 0,0
17.05.2019 21:00:00 12,6 8,5 11,1 14,6 12,1 6 3 12 6 NO 1006,0 8 0,2
17.05.2019 20:00:00 13,4 8,0 13,5 14,7 12,0 9 5 16 9 NO 1005,8 10 0,0
17.05.2019 19:00:00 13,8 8,0 14,4 14,8 12,1 11 6 16 9 ONO 1006,0 11 0,0
17.05.2019 18:00:00 14,1 7,8 15,2 14,7 12,0 7 4 14 7 ONO 1006,2 12 0,0
17.05.2019 17:00:00 14,2 7,9 15,4 14,7 12,0 11 6 18 10 NNO 1006,4 11 0,0
17.05.2019 16:00:00 14,2 7,9 16,0 14,5 12,0 11 6 28 15 NNO 1006,5 10 0,0
17.05.2019 15:00:00 13,9 8,1 15,0 14,4 12,0 11 6 22 12 NO 1006,6 9 0,0
17.05.2019 14:00:00 13,8 8,0 15,3 14,3 12,0 10 5 19 11 NO 1006,7 9 0,0
17.05.2019 13:00:00 13,7 7,2 15,2 13,9 12,0 10 5 20 11 ONO 1006,6 10 0,0
17.05.2019 12:00:00 13,8 7,3 15,6 13,5 12,0 9 5 21 11 O 1006,8 9 0,0
17.05.2019 11:00:00 12,3 8,0 12,6 13,2 12,0 15 8 21 12 NO 1007,0 9 0,0

tt = temperatuur
td = dauwpunt
tt 5cm = temperatuur 5cm
tt -20cm = temperatuur -20cm
tt -100cm = temperatuur -100cm
ff = windsnelheid
fx = windstoten
dd = windrichting
ppp = luchtdruk
vv = zicht
rr = neerslag

Weerstations in de omgeving